Meteo orario Al Hillah

Oggi, 29 Ottobre, Giovedi

Tempo Temperatura Precipitazioni Vento Pressione Umidità
00:00 +21°C° 0 mm 2 m/s 758 mm Hg 18%
01:00 +20°C° 0 mm 2 m/s 758 mm Hg 19%
02:00 +20°C° 0 mm 2 m/s 758 mm Hg 20%
03:00 +19°C° 0 mm 2 m/s 758 mm Hg 20%
04:00 +19°C° 0 mm 2 m/s 758 mm Hg 21%
05:00 +19°C° 0 mm 2 m/s 758 mm Hg 22%
06:00 +19°C° 0 mm 2 m/s 758 mm Hg 23%
07:00 +22°C° 0 mm 3 m/s 759 mm Hg 20%
08:00 +26°C° 0 mm 3 m/s 759 mm Hg 17%
09:00 +29°C° 0 mm 3 m/s 760 mm Hg 14%
10:00 +31°C° 0 mm 3 m/s 759 mm Hg 12%
11:00 +34°C° 0 mm 2 m/s 759 mm Hg 10%
12:00 +35°C° 0 mm 2 m/s 759 mm Hg 9%
13:00 +36°C° 0 mm 2 m/s 758 mm Hg 8%
14:00 +35°C° 0 mm 1 m/s 758 mm Hg 8%
15:00 +35°C° 0 mm 1 m/s 758 mm Hg 7%
16:00 +32°C° 0 mm 1 m/s 758 mm Hg 10%
17:00 +29°C° 0 mm 2 m/s 758 mm Hg 13%
18:00 +26°C° 0 mm 2 m/s 758 mm Hg 16%
19:00 +25°C° 0 mm 2 m/s 758 mm Hg 17%
20:00 +23°C° 0 mm 2 m/s 758 mm Hg 18%
21:00 +22°C° 0 mm 1 m/s 758 mm Hg 19%
22:00 +22°C° 0 mm 1 m/s 758 mm Hg 21%
23:00 +21°C° 0 mm 1 m/s 758 mm Hg 24%

Domani, 30 Ottobre, Venerdi

Tempo Temperatura Precipitazioni Vento Pressione Umidità
00:00 +21°C° 0 mm 1 m/s 758 mm Hg 27%
01:00 +20°C° 0 mm 2 m/s 758 mm Hg 23%
02:00 +20°C° 0 mm 2 m/s 758 mm Hg 20%
03:00 +20°C° 0 mm 2 m/s 758 mm Hg 17%
04:00 +20°C° 0 mm 2 m/s 758 mm Hg 17%
05:00 +19°C° 0 mm 2 m/s 758 mm Hg 18%
06:00 +19°C° 0 mm 2 m/s 758 mm Hg 19%
07:00 +23°C° 0 mm 2 m/s 759 mm Hg 16%
08:00 +26°C° 0 mm 2 m/s 759 mm Hg 14%
09:00 +29°C° 0 mm 2 m/s 759 mm Hg 11%
10:00 +31°C° 0 mm 2 m/s 759 mm Hg 10%
11:00 +32°C° 0 mm 2 m/s 759 mm Hg 9%
12:00 +34°C° 0 mm 1 m/s 759 mm Hg 8%
13:00 +34°C° 0 mm 1 m/s 758 mm Hg 7%
14:00 +34°C° 0 mm 1 m/s 758 mm Hg 7%
15:00 +35°C° 0 mm 1 m/s 757 mm Hg 7%
16:00 +31°C° 0 mm 1 m/s 757 mm Hg 10%
17:00 +28°C° 0 mm 2 m/s 757 mm Hg 14%
18:00 +24°C° 0 mm 2 m/s 757 mm Hg 18%
19:00 +23°C° 0 mm 1 m/s 757 mm Hg 24%
20:00 +22°C° 0 mm 1 m/s 757 mm Hg 29%
21:00 +21°C° 0 mm 1 m/s 758 mm Hg 34%
22:00 +20°C° 0 mm 1 m/s 757 mm Hg 36%
23:00 +20°C° 0 mm 1 m/s 757 mm Hg 37%

Dopodomani, 31 Ottobre, Sabato

Tempo Temperatura Precipitazioni Vento Pressione Umidità
00:00 +20°C° 0 mm 1 m/s 757 mm Hg 39%
01:00 +20°C° 0 mm 1 m/s 757 mm Hg 35%
02:00 +20°C° 0 mm 1 m/s 757 mm Hg 32%
03:00 +19°C° 0 mm 2 m/s 757 mm Hg 29%
04:00 +18°C° 0 mm 2 m/s 757 mm Hg 26%
05:00 +18°C° 0 mm 2 m/s 758 mm Hg 23%
06:00 +18°C° 0 mm 2 m/s 758 mm Hg 20%
07:00 +21°C° 0 mm 2 m/s 758 mm Hg 17%
08:00 +26°C° 0 mm 3 m/s 758 mm Hg 13%
09:00 +29°C° 0 mm 3 m/s 759 mm Hg 10%
10:00 +31°C° 0 mm 3 m/s 758 mm Hg 9%
11:00 +34°C° 0 mm 4 m/s 758 mm Hg 9%
12:00 +36°C° 0 mm 4 m/s 758 mm Hg 8%
13:00 +36°C° 0 mm 4 m/s 757 mm Hg 8%
14:00 +37°C° 0 mm 4 m/s 757 mm Hg 8%
15:00 +37°C° 0 mm 4 m/s 756 mm Hg 7%
16:00 +35°C° 0 mm 4 m/s 756 mm Hg 9%
17:00 +32°C° 0 mm 4 m/s 756 mm Hg 10%
18:00 +29°C° 0 mm 4 m/s 756 mm Hg 11%
19:00 +28°C° 0 mm 5 m/s 756 mm Hg 12%
20:00 +28°C° 0 mm 5 m/s 756 mm Hg 12%
21:00 +27°C° 0 mm 5 m/s 756 mm Hg 12%
22:00 +26°C° 0 mm 5 m/s 757 mm Hg 13%
23:00 +26°C° 0 mm 5 m/s 757 mm Hg 13%

1 Novenbre, Domenica

Tempo Temperatura Precipitazioni Vento Pressione Umidità
00:00 +25°C° 0 mm 5 m/s 757 mm Hg 14%
01:00 +23°C° 0 mm 4 m/s 757 mm Hg 14%
02:00 +23°C° 0 mm 4 m/s 757 mm Hg 15%
03:00 +23°C° 0 mm 4 m/s 757 mm Hg 15%
04:00 +22°C° 0 mm 4 m/s 757 mm Hg 16%
05:00 +22°C° 0 mm 4 m/s 758 mm Hg 17%
06:00 +21°C° 0 mm 4 m/s 758 mm Hg 17%
07:00 +23°C° 0 mm 4 m/s 758 mm Hg 16%
08:00 +27°C° 0 mm 5 m/s 759 mm Hg 14%
09:00 +29°C° 0 mm 5 m/s 759 mm Hg 12%
10:00 +32°C° 0 mm 5 m/s 759 mm Hg 11%
11:00 +35°C° 0 mm 5 m/s 758 mm Hg 10%
12:00 +38°C° 0 mm 6 m/s 758 mm Hg 9%
13:00 +38°C° 0 mm 6 m/s 757 mm Hg 8%
14:00 +39°C° 0 mm 6 m/s 757 mm Hg 8%
15:00 +39°C° 0 mm 6 m/s 757 mm Hg 7%
16:00 +36°C° 0 mm 6 m/s 757 mm Hg 9%
17:00 +34°C° 0 mm 5 m/s 757 mm Hg 10%
18:00 +32°C° 0 mm 5 m/s 757 mm Hg 11%
19:00 +30°C° 0 mm 5 m/s 757 mm Hg 12%
20:00 +29°C° 0 mm 5 m/s 757 mm Hg 13%
21:00 +28°C° 0 mm 5 m/s 757 mm Hg 14%
22:00 +28°C° 0 mm 6 m/s 758 mm Hg 14%
23:00 +27°C° 0 mm 6 m/s 758 mm Hg 15%

2 Novenbre, Lunedi

Tempo Temperatura Precipitazioni Vento Pressione Umidità
00:00 +27°C° 0 mm 6 m/s 758 mm Hg 16%
01:00 +26°C° 0 mm 5 m/s 758 mm Hg 17%
02:00 +26°C° 0 mm 5 m/s 758 mm Hg 18%
03:00 +25°C° 0 mm 5 m/s 758 mm Hg 19%
04:00 +23°C° 0 mm 4 m/s 758 mm Hg 20%
05:00 +22°C° 0 mm 3 m/s 758 mm Hg 21%
06:00 +21°C° 0 mm 3 m/s 759 mm Hg 23%
07:00 +25°C° 0 mm 3 m/s 759 mm Hg 20%
08:00 +27°C° 0 mm 3 m/s 759 mm Hg 18%
09:00 +29°C° 0 mm 3 m/s 760 mm Hg 16%
10:00 +31°C° 0 mm 3 m/s 759 mm Hg 14%
11:00 +34°C° 0 mm 4 m/s 759 mm Hg 12%
12:00 +37°C° 0 mm 4 m/s 759 mm Hg 11%
13:00 +37°C° 0 mm 5 m/s 759 mm Hg 10%
14:00 +37°C° 0 mm 5 m/s 758 mm Hg 10%
15:00 +39°C° 0 mm 5 m/s 758 mm Hg 9%
16:00 +36°C° 0 mm 4 m/s 758 mm Hg 11%
17:00 +34°C° 0 mm 4 m/s 758 mm Hg 12%
18:00 +30°C° 0 mm 4 m/s 758 mm Hg 14%
19:00 +29°C° 0 mm 4 m/s 758 mm Hg 15%
20:00 +29°C° 0 mm 4 m/s 758 mm Hg 16%
21:00 +28°C° 0 mm 4 m/s 758 mm Hg 17%
22:00 +27°C° 0 mm 4 m/s 758 mm Hg 18%
23:00 +26°C° 0 mm 4 m/s 758 mm Hg 19%

3 Novenbre, Martedi

Tempo Temperatura Precipitazioni Vento Pressione Umidità
00:00 +25°C° 0 mm 4 m/s 758 mm Hg 20%
01:00 +25°C° 0 mm 4 m/s 758 mm Hg 21%
02:00 +23°C° 0 mm 4 m/s 758 mm Hg 22%
03:00 +23°C° 0 mm 4 m/s 758 mm Hg 23%
04:00 +22°C° 0 mm 4 m/s 758 mm Hg 24%
05:00 +22°C° 0 mm 4 m/s 759 mm Hg 25%
06:00 +21°C° 0 mm 4 m/s 759 mm Hg 26%
07:00 +23°C° 0 mm 4 m/s 759 mm Hg 23%
08:00 +27°C° 0 mm 5 m/s 759 mm Hg 19%
09:00 +29°C° 0 mm 5 m/s 759 mm Hg 16%
10:00 +32°C° 0 mm 5 m/s 759 mm Hg 14%
11:00 +35°C° 0 mm 5 m/s 759 mm Hg 11%
12:00 +37°C° 0 mm 5 m/s 759 mm Hg 9%
13:00 +39°C° 0 mm 5 m/s 758 mm Hg 9%
14:00 +39°C° 0 mm 5 m/s 758 mm Hg 8%
15:00 +40°C° 0 mm 4 m/s 757 mm Hg 8%
16:00 +36°C° 0 mm 4 m/s 757 mm Hg 9%
17:00 +34°C° 0 mm 4 m/s 757 mm Hg 11%
18:00 +30°C° 0 mm 4 m/s 757 mm Hg 13%
19:00 +30°C° 0 mm 4 m/s 757 mm Hg 13%
20:00 +29°C° 0 mm 4 m/s 757 mm Hg 14%
21:00 +28°C° 0 mm 4 m/s 758 mm Hg 15%
22:00 +28°C° 0 mm 4 m/s 758 mm Hg 16%
23:00 +27°C° 0 mm 4 m/s 758 mm Hg 17%
Mostrare altro

Abbiamo bisogno del tuo consenso

Meteoprog e i nostri fornitori di servizi possono memorizzare e accedere a dati personali come cookie, identificatori di dispositivi o altre tecnologie simili sul tuo dispositivo e possono elaborare tali dati per personalizzare i contenuti e gli annunci, nonché fornire funzionalità dei social media e analizzarne il traffico.

  • Archiviare e/o accedere alle informazioni sul tuo dispositivo

    Cookie, identificatori di dispositivi o altre informazioni possono essere memorizzati o resi accessibili sul tuo dispositivo per le finalità sopra indicate.

  • Annunci e contenuti personalizzati, misurazione di annunci e contenuti, approfondimenti sul pubblico e sviluppo di prodotti

    Gli annunci e i contenuti possono essere personalizzati in base a un profilo. È possibile aggiungere più dati per personalizzare meglio annunci e contenuti. È possibile misurare il rendimento degli annunci e dei contenuti. È possibile ricavare informazioni sul pubblico che ha visto gli annunci e i contenuti. Tali dati possono essere utilizzati per sviluppare o migliorare l'esperienza, i sistemi e il software dell'utente.

Cliccando su “Accetto”, acconsenti all'uso di cookie, identificatori di dispositivo, web beacon o altre tecnologie simili. Puoi modificare le impostazioni nel browser del tuo dispositivo.

Per determinati scopi, è possibile fare affidamento su interessi legali, piuttosto che sul consenso. Puoi approfondire questo argomento consultando la nostra Informativa sulla privacy e sui cookie.